HBBAHRYR

Guest
Details From HBBA - BUJUMBURA INTL
To HRYR - KIGALI INTL
Flight Number -
Tags generated
Created
Modified
Stats Distance 95 nm / 176 km
Max Altitude 9,700 ft / 2,957 m
Waypoints 3
Social Downloads 4
Likes 0
Share VATSIM

Download

Looking for another format? Having issues loading an existing format? Contact us
Advertisement - Login to hide

Notes

Basic altitude profile: - Ascent Rate: 2500ft/min - Ascent Speed: 250kts - Cruise Altitude: 35000ft - Cruise Speed: 420kts - Descent Rate: 1500ft/min - Descent Speed: 250kts Options: - Use NATs: yes - Use PACOTS: yes - Use low airways: yes - Use high airways: yes

Route

HBBA RG HRYR

ID Type Via Altitude Latitude Longitude Leg Dist Tot Dist Heading (true) Name
O HBBA APT - 0 ft / 0 m -3.32402˚ 29.31852˚ - 0 nm - BUJUMBURA INTL
RG NDB - 9,700 ft / 2,957 m -2.91651˚ 29.51868˚ 27 nm 27 nm 26° / 26° RWEGURA NDB
O HRYR APT - 0 ft / 0 m -1.96863˚ 30.13945˚ 68 nm 95 nm 33° / 33° KIGALI INTL

Altitude Profile

Advertisement - Login to hide

HBBA

Details ICAO HBBA (BJM)
Name BUJUMBURA INTL
Region Burundi
Timezone Africa/Bujumbura (UTC+2.0)
Stats Elevation 2,582 ft / 787 m (AMSL)
Location -3.324018° 29.318521°
Runways 1
Magnetic Variation 0.921° E

METAR

Not found

TAF

TAF TAF HBBA 200500Z 2006/2112 18010G20KT 9999 FEW030 SCT100 BECMG 2017/2019 00000KT CAVOK BECMG 2102/2104 36002KT BECMG 2107/2109 18010G15KT 9999 FEW030 SCT100

Decode

Departure Runways

ID Width Length Bearing (true) Bearing (mag) Surface Threshold Offset Overrun Length
17 148 ft / 45 m 11,841 ft / 3,609 m 171.10° 170.18° Asphalt 0 ft / 0 m 60 ft / 18 m
35 148 ft / 45 m 11,841 ft / 3,609 m 351.10° 350.18° Asphalt 0 ft / 0 m 60 ft / 18 m

HRYR

Details ICAO HRYR (KGL)
Name KIGALI INTL
Region Rwanda
Timezone Africa/Kigali (UTC+2.0)
Stats Elevation 4,859 ft / 1,481 m (AMSL)
Location -1.968628° 30.139450°
Runways 1
Magnetic Variation 1.237° E

METAR

HRYR 200930Z 17009KT 9999 SCT025 23/16 Q1020 NOSIG

Decode

TAF

TAF HRYR 200500Z 2006/2112 00000KT 7000 SCT025 SCT100 FM 200800 VRB04KT 9999 SCT025 SCT100 BECMG 2013/2016 15010KT FEW023CB BKN025 FM 202200 32003KT SCT026 BKN100 BECMG 2103/2106 00000KT 8000 SCT025 BKN025 FM 210900 17006KT 9999 SCT025 SCT100

Decode

Destination Runways

ID Width Length Bearing (true) Bearing (mag) Surface Threshold Offset Overrun Length
10 148 ft / 45 m 11,485 ft / 3,501 m 99.97° 98.73° Asphalt 0 ft / 0 m 66 ft / 20 m
28 148 ft / 45 m 11,485 ft / 3,501 m 279.97° 278.73° Asphalt 705 ft / 215 m 66 ft / 20 m

Approach Navaids

Runway Type Ident Frequency Range Bearing (true) Bearing (mag) Slope Elevation
28 Localiser IKNB 109.90 MHz 18 nm / 33 km 279.95° 278.71° - 4,859 ft / 1,481 m (AMSL)
28 Glidescope IKNB 109.90 MHz 10 nm / 19 km 279.97° 278.73° 3.00° 4,859 ft / 1,481 m (AMSL)

Popular Alternatives